User: anonymous   Login
Location: Newark
(13.8625°N, 100.5144°E)
Time: 18:24:30
(UTC+00:00)
Language:

XW-2A - Orbit

View from above orbital plane
View from above orbital plane
View from above satellite
View from above satellite

Ground track
Ground track

The orbit data is extracted from the following two-line orbital elements,

1 40903U 15049E   21204.17392645  .00003520  00000-0  74959-4 0  9999
2 40903  97.2338 258.5476 0010630 239.2648 205.7144 15.45574777328313
Epoch (UTC): 23 July 2021 04:10:27
Eccentricity: 0.0010630
inclination: 97.2338°
perigee height: 422 km
apogee height: 437 km
right ascension of ascending node: 258.5476°
argument of perigee: 239.2648°
revolutions per day: 15.45574777
mean anomaly at epoch: 205.7144°
orbit number at epoch: 32831

The dashed part of the orbit path shows where the satellite is in the earth's shadow,  

DLR